Tracking 26198 objects as of 1-Oct-2022
HD Live streaming from Space Station
objects crossing your sky now

COSMOS 1741 DEB *

Track COSMOS 1741 DEB * now!
10-day predictions


NORAD ID: 18681
Int'l Code: 1986-030G
Perigee: 743.3 km
Apogee: 765.3 km
Inclination: 74.0 °
Period: 99.8 minutes
Semi major axis: 7125 km
RCS: 0.0116 m2 (small)
Launch date: April 17, 1986
Source: Commonwealth of Independent States (former USSR) (CIS)
Launch site: PLESETSK MISSILE AND SPACE COMPLEX (PKMTR)

Note: This is SATELLITE DEBRIS
aabbcc
Your satellite tracking list
Your tracking list is empty




NASA's NSSDC Master Catalog

Two Line Element Set (TLE):
1 18681U 87049D   22273.69933038  .00001292  00000-0  38961-3 0  9993
2 18681  74.0297 249.3645 0015472  83.7730  88.6600 14.43435500849553
Source of the keplerian elements: AFSPC